Regional Weather Roundup
Issued by NWS

Home | Current Version | Previous Version | Text Only | Print | Product List | Glossary On
Versions: 1 2 3 4 5 6 7 8 9 10 11 12 13 14 15 16 17 18 19 20 21 22 23 24 25 26 27
000
ASUS46 KSEW 230310
RWRWA

WASHINGTON REGIONAL WEATHER ROUNDUP
NATIONAL WEATHER SERVICE SEATTLE WA
700 PM PST SUN JAN 22 2017

NOTE:"FAIR" INDICATES FEW OR NO CLOUDS BELOW 12,000 FEET WITH NO
SIGNIFICANT WEATHER AND/OR OBSTRUCTIONS TO VISIBILITY.

WAZ507-509-555>559-230400-
SEATTLE, TACOMA, EVERETT, AND VICINITY

CITY           SKY/WX    TMP DP  RH WIND       PRES   REMARKS
EVERETT        MOCLDY    40  37  89 E8        29.58R
BOEING FIELD   MOCLDY    43  37  79 SE6       29.58S
RENTON         MOCLDY    43  37  79 CALM      29.58S
SEATAC AIRPORT MOCLDY    43  36  76 E8        29.57S
JBLM-MCCHORD   MOCLDY    36  36  99 CALM      29.56S
PUYALLUP         N/A     39  37  93 CALM      29.56S
BREMERTON      CLOUDY    36  34  93 CALM      29.60S
JBLM-FT LEWIS  CLOUDY    38  38 100 SE5       29.56R
TACOMA NARROWS PTCLDY    43  38  82 CALM      29.57S
$$

WAZ001-503-506-510-514-515-230400-
NORTH INTERIOR

CITY           SKY/WX    TMP DP  RH WIND       PRES   REMARKS
BELLINGHAM     CLOUDY    39  36  89 N6        29.58S
FRIDAY HARBOR  MOCLDY    44  37  76 E6        29.58R
EASTSOUND      CLOUDY    45  37  76 NE6       29.57R
PORT ANGELES   MOCLDY    38  37  97 W5        29.54R
EDIZ HOOK      FAIR      41  38  90 SW3       29.54S
PORT TOWNSEND  MOCLDY    39  37  93 SE5       29.58S
NAS WHIDBEY    CLOUDY    45  34  65 SE10      29.60S
ARLINGTON      NOT AVBL
BURLINGTON     MOCLDY    41  37  87 NE8       29.59R
$$

WAZ020-022-039-040-504-511-512-230400-
SOUTHWEST INTERIOR

CITY           SKY/WX    TMP DP  RH WIND       PRES   REMARKS
SHELTON        CLOUDY    43  40  89 CALM      29.54R
OLYMPIA        CLOUDY    43  34  70 S7        29.57R
CHEHALIS       FAIR      45  36  70 SE6       29.55S
KELSO          MOCLDY    44  35  70 SW3       29.57R
VANCOUVER      MOCLDY    40  36  86 CALM      29.56F
SCAPPOOSE, OR  CLOUDY    40  36  86 SW7       29.56R
PORTLAND, OR   CLOUDY    40  36  86 SE8       29.56F
$$

WAZ021-516-517-230400-
WASHINGTON COAST

CITY           SKY/WX    TMP DP  RH WIND       PRES   REMARKS
FORKS          LGT RAIN  40  38  93 E6        29.51R
HOQUIAM        PTCLDY    43  39  86 NE8       29.51R
ASTORIA, OR    PTCLDY    44  35  70 E6        29.50R
$$

WAZ019-023-024-040-567>569-230400-
CASCADE MOUNTAINS AND COLUMBIA GORGE

CITY           SKY/WX    TMP DP  RH WIND       PRES   REMARKS
STAMPEDE PASS  NOT AVBL
TROUTDALE, OR  MOCLDY    41  36  82 E20       29.56F
THE DALLES, OR FOG       32  32 100 CALM      29.65R VSB 1/4
$$

WAZ026-027-041>044-520-521-230400-
EAST SLOPES

CITY           SKY/WX    TMP DP  RH WIND       PRES   REMARKS
OMAK           LGT RAIN  34  32  92 CALM      29.61S FOG
WENATCHEE      FOG       32  31  96 NE3       29.62R VSB 1/4
ELLENSBURG     FOG       33  31  92 CALM      29.60S VSB 1/4
YAKIMA         FOG       34  33  96 W3        29.63S VSB 1/16
$$

WAZ028-034-035-230400-
COLUMBIA BASIN

CITY           SKY/WX    TMP DP  RH WIND       PRES   REMARKS
EPHRATA        CLOUDY    33  29  85 SW6       29.61R
MOSES LAKE     CLOUDY    33  32  96 CALM      29.61S
PASCO          MOCLDY    32  32 100 E9        29.65F FOG
HERMISTON, OR  PTCLDY    32  31  96 SE5       29.64S
$$

WAZ036>038-230400-
NORTHEAST WASHINGTON

CITY           SKY/WX    TMP DP  RH WIND       PRES   REMARKS
SPOKANE GEIGER LGT SNOW  33  32  96 SE8       29.57S FOG
SPOKANE FELTS  CLOUDY    36  35  96 CALM      29.60S
FAIRCHILD AFB  LGT SNOW  32  32 100 CALM      29.56S FOG
COEURDALENE,ID LGT RAIN  34  32  92 NE5       29.59F
DEER PARK      LGT RAIN  34  32  92 NE6       29.59S
$$

WAZ029>033-230400-
SOUTHEAST WASHINGTON

CITY           SKY/WX    TMP DP  RH WIND       PRES   REMARKS
PULLMAN        LGT SNOW  33  32  96 SW10      29.62R FOG     WCI  25
LEWISTON, ID   LGT RAIN  36  32  85 W3        29.63R
WALLA WALLA    MOCLDY    34  31  88 N5        29.63S
PENDLETON, OR  PTCLDY    31  29  92 S8        29.63R
$$




USA.gov is the U.S. government's official web portal to all federal, state and local government web resources and services.